Regional Weather Roundup
Issued by NWS Goodland, KS

Home | Current Version | Previous Version | Graphics & Text | Print | Product List | Glossary On
Versions: 1 2 3 4 5 6 7 8 9 10 11 12 13 14 15 16 17 18 19 20 21 22 23 24 25 26 27 28 29 30 31 32 33 34 35 36 37 38 39 40 41 42 43 44 45 46 47 48 49 50
828
ASUS43 KGLD 290859
RWRGLD

GOODLAND FORECAST AREA HOURLY WEATHER ROUNDUP
NATIONAL WEATHER SERVICE GOODLAND KS
300 AM MDT WED MAR 29 2017

...OFFICIAL OBSERVATIONS...

CITY           SKY/WX    TMP DP  RH WIND       PRES   REMARKS
GOODLAND KS    CLOUDY    38  38 100 N14       30.01R FOG
HILL CITY KS   LGT RAIN  43  43 100 N18       29.96R FOG
IMPERIAL NEB   CLOUDY    41  39  93 N10       30.05R
MCCOOK NEB     LGT RAIN  43  42  97 NE12      30.01S FOG
AKRON CO       LGT RAIN  36  34  92 NE9       30.06R
BURLINGTON CO  CLOUDY    38  36  92 NE15      30.01R FOG
LIMON CO       LGT SNOW  32  32 100 N10       30.04R FOG
$$

...UNOFFICIAL OBSERVATIONS...

CITY           SKY/WX    TMP DP  RH WIND       PRES   REMARKS
NORTON KS      DRIZZLE   41  37  87 N12G22    29.97S
SHARON SPRINGS   N/A     40  39  96 NE12G18     N/A
TRENTON NEB      N/A     41  32  70 NE6         N/A
KIT CARSON CO    N/A     38  35  90 MISG        N/A
YUMA CO        CLOUDY    36  34  93 NE7       30.06R
$$




USA.gov is the U.S. government's official web portal to all federal, state and local government web resources and services.